User: anonymous   Login
Location: Mauna Kea VIS
(19.7591°N, 155.4561°W)
Time: 02:54:51
(UTC-10:00)
Language:

Cosmos 1624 Rocket - Orbit

View from above orbital plane
View from above orbital plane
View from above satellite
View from above satellite

Ground track
Ground track

The orbit data is extracted from the following two-line orbital elements,

1 15483U 85006B   17145.27405661 +.00000050 +00000-0 +26119-4 0  9997
2 15483 074.0474 037.3131 0018370 021.3327 117.2852 14.36175286692987
Epoch (UTC): 25 May 2017 06:34:38
Eccentricity: 0.0018370
inclination: 74.0474°
perigee height: 758 km
apogee height: 784 km
right ascension of ascending node: 37.3131°
argument of perigee: 21.3327°
revolutions per day: 14.36175286
mean anomaly at epoch: 117.2852°
orbit number at epoch: 69298

The dashed part of the orbit path shows where the satellite is in the earth's shadow,  

DLR